Location: Fatehalanka
(16.3139°N, 80.8379°E)
Time: 11:02:00
(UTC+00:00)

CZ-3B R/B - Pass Details

Date: 14 May 2026
Orbit: 436 x 17149 km, 54.9° (Epoch: 5 June)

Event Time Altitude Azimuth Distance (km) Brightness Sun altitude
Exits shadow 21:16:31 43° 353° (N) 1,529 4.1 -36.6°
Drops below altitude 10° 21:26:00 10° 29° (NNE) 5,513 7.5 -34.8°
Sets 21:34:16 0° 34° (NE) 8,703 8.8 -33.3°
